Starlink 11416

operational
NORAD ID: 62594 Int'l Des: 2025-008 Owner: SPXS Country: US Constellation: starlink
LEOCIRCULAR

About Starlink 11416

Description loading...

Live Position

Loading 3D Globe...

Upcoming Passes

Altitude History

Altitude vs Time

uPlot chart will show altitude changes over time

Two-Line Element Set

1 62594U 25008H 25259.25496923 .00355292 00000-0 26454-2 0 9993
2 62594 43.0007 97.2555 0001614 288.3770 71.6922 15.70932399 39683
Epoch: Sep 16, 2025 • Age: 37 hours

Current Status

Altitude 353.8 km
Velocity 7.70 km/s
Sub-Earth Point -3.58°S, 17.99°W
Launch Date Jan 13, 2025
Age 0.6 years
Type internet

Technical Details

Classification Payload
Mass 960.00 kg
Dry Mass 910.00 kg
Total Mass 960.00 kg
Length 0.30 m
Diameter 4.10 m
Span 29.00 m
Shape Box + pan
Manufacturer SPXS
Bus Type Starlink V2MD
Phase Status In Orbit
Owner/State SPXS/US

Large Constellations

Loading constellations...